Location: Miles
(41.4492°N, 81.6087°W)
Time: 06:08:15
(UTC+00:00)

Courier 1B - Pass Details

Date: 16 September 2024
Orbit: 962 x 1208 km, 28.3° (Epoch: 02 October)

Event Time Altitude Azimuth Distance (km) Brightness Sun altitude
Rises 00:05:58 0° 258° (WSW) 4,053 12.3 -6.7°
Reaches altitude 10° 00:09:51 10° 240° (WSW) 3,116 11.0 -7.4°
Maximum altitude 00:14:38 18° 202° (SSW) 2,601 9.9 -8.3°
Drops below altitude 10° 00:19:27 10° 163° (SSE) 3,136 9.9 -9.1°
Sets 00:23:24 0° 145° (SE) 4,089 10.3 -9.9°
Enters shadow 00:23:34 - 145° (SE) 4,132 10.3 -9.9°
